[[{"header":{"parameterUnit":"m.s-1","parameterCategory":1,"la1":30.2991,"la2":30.254,"lo1":-89.0895,"lo2":-89.0444,"dy":0.0017,"dx":0.0017,"nx":28,"ny":28,"refTime":"2024-03-08T09:00:00:Z","depth":0,"parameterNumber":2,"parameterNumberName":"U-component_of_WINDS"},"data":[0,0,0,0,0,0,0,0,0,0,0,0,0,0,0,0,0,0,0,0,0,0,0,0,0,0,0,0,0,0,0,0,0,0,0,0,0,0,0,0,0,0,0,0,0,0,0,0,0,0,0,0,0,0,0,0,0,0,3.4719,3.472,0,3.4843,3.4844,3.4846,3.4862,3.4861,3.486,3.4859,3.4991,3.4995,3.5,0,0,0,0,0,0,0,0,0,0,0,0,0,3.4501,3.4505,3.4718,3.472,3.4722,3.4843,3.4844,3.4846,3.4863,3.4861,3.486,3.4858,3.4989,3.4995,3.5,0,0,0,0,0,0,0,0,0,0,0,0,0,3.4608,3.4507,3.4718,3.4744,3.4748,3.4842,3.4845,3.4847,3.4863,3.4861,3.4859,3.4858,3.4988,3.4994,3.5001,3.508,0,0,3.5022,3.5025,0,0,0,0,0,0,0,0,3.4602,3.4616,3.4739,3.4743,3.4747,3.4835,3.4816,3.4925,3.4863,3.4819,3.4859,3.4857,3.4941,3.4952,3.4979,3.5086,3.5092,3.5023,3.5027,3.503,3.5032,0,0,0,0,0,0,0,3.4594,3.4611,3.4768,3.4741,3.4746,3.4752,3.4765,3.4837,3.4889,3.4823,3.4824,3.4839,3.4943,3.4972,3.4982,3.5094,3.5023,3.5029,3.5033,3.5036,3.5275,3.5277,0,0,0,0,0,0,3.4581,3.4604,3.4764,3.4772,3.4668,3.4757,3.4772,3.4809,3.4888,3.4898,3.484,3.4839,3.4961,3.4974,3.4987,3.5086,3.503,3.5037,3.5041,3.5273,3.5275,3.5278,0,0,0,0,0,0,3.4577,3.4596,3.4759,3.4688,3.471,3.4763,3.4804,3.4812,3.4841,3.4901,3.4911,3.486,3.496,3.4977,3.5057,3.5091,3.504,3.5046,3.527,3.5274,3.5277,3.5283,0,0,0,0,0,0,3.457,3.4594,3.4622,3.4689,3.4713,3.4825,3.4806,3.4816,3.4853,3.4853,3.4922,3.4932,3.496,3.5046,3.5064,3.5099,3.5051,3.5267,3.5272,3.5275,3.528,3.5287,3.5292,0,0,0,0,0,3.4563,3.462,3.4624,3.4643,3.475,3.4827,3.4841,3.487,3.4855,3.4886,3.4925,3.493,3.5084,3.5054,3.5074,3.5112,3.5265,3.527,3.5275,3.5278,3.5285,3.5292,0,0,0,0,0,0,3.4557,3.4629,3.4634,3.4714,3.4764,3.4829,3.4868,3.4877,3.4933,3.4931,3.4967,3.4983,3.5061,3.5095,3.5061,3.5194,3.5174,3.5183,3.5169,3.5177,3.5182,3.5173,3.5057,0,0,0,0,0,3.4565,3.4619,3.468,3.4745,3.477,3.4815,3.4849,3.4868,3.4922,3.4943,3.4988,3.5041,3.5102,3.5141,3.52,3.5286,3.5303,3.5322,3.5328,3.5332,3.5339,3.539,3.54,3.5294,3.5294,3.5294,0,0,3.4582,3.4628,3.466,3.4745,3.4786,3.4844,3.4832,3.4893,3.4937,3.4953,3.5031,3.5066,3.5128,3.5212,3.5251,3.5242,3.5373,3.5338,3.5341,3.5347,3.5396,3.5406,3.5415,3.5297,3.5297,3.5296,0,0,3.4643,3.4682,3.4741,3.4783,3.4845,3.4875,3.4889,3.4954,3.4977,3.5056,3.507,3.5124,3.5227,3.5271,3.5308,3.5388,3.5396,3.5407,3.5436,3.5485,3.5493,3.5501,3.5531,3.5542,3.5414,3.5414,3.5414,0,3.4656,3.4742,3.4771,3.4832,3.487,3.4886,3.4948,3.4988,3.5066,3.5093,3.5082,3.5214,3.5257,3.5352,3.5372,3.54,3.542,3.5399,3.5489,3.5497,3.5505,3.5534,3.5546,3.5415,3.5415,3.5415,3.5415,0,3.4757,3.4816,3.4857,3.4932,3.4975,3.5036,3.5077,3.5117,3.5132,3.5165,3.5246,3.5299,3.537,3.5394,3.541,3.5493,3.5486,3.5482,3.5462,3.5515,3.5544,3.5555,3.5416,3.5416,3.5416,3.5415,0,0,3.4816,3.4907,3.4922,3.4957,3.5028,3.5075,3.5139,3.5207,3.5242,3.5296,3.5352,3.544,3.5438,3.5479,3.55,3.5543,3.5606,3.5534,3.5536,3.5547,3.5703,3.5706,3.5718,3.5612,3.5614,3.5616,3.5698,0,3.4886,3.4997,3.5026,3.5122,3.5179,3.5196,3.5252,3.5303,3.5335,3.539,3.5427,3.5489,3.548,3.5505,3.5548,3.5589,3.5638,3.5584,3.5666,3.5668,3.565,3.5733,3.5736,3.581,3.5709,3.5711,3.5713,0,3.4982,3.5037,3.5138,3.5203,3.5228,3.5277,3.5344,3.5395,3.5455,3.5475,3.5522,3.5541,3.561,3.5587,3.5685,3.5647,3.5683,3.5708,3.5712,3.5721,3.5694,3.5745,3.5835,3.5846,3.573,3.5729,3.5727,0,3.5017,3.5117,3.5191,3.522,3.5298,3.5332,3.5367,3.5424,3.5464,3.5523,3.555,3.5616,3.5653,3.5706,3.5743,3.5722,3.5838,3.5817,3.5859,3.5859,3.5883,3.5881,3.598,3.5905,3.5905,3.5904,3.5904,0,3.5092,3.5153,3.5208,3.5253,3.5323,3.5358,3.5427,3.5463,3.5514,3.5569,3.5589,3.564,3.5685,3.5743,3.5773,3.5851,3.5867,3.5887,3.5895,3.5886,3.5883,3.591,3.5906,3.5908,3.5907,3.5906,3.5906,0,3.5142,3.5181,3.5263,3.533,3.5348,3.5397,3.5456,3.5502,3.5536,3.5605,3.5623,3.5677,3.5747,3.5789,3.5877,3.5897,3.5984,3.5988,3.5963,3.5966,3.6007,3.6003,3.6127,3.6146,3.6057,3.6058,3.6058,0,3.5188,3.5235,3.5308,3.5345,3.5379,3.5439,3.548,3.5517,3.556,3.5632,3.567,3.5741,3.5799,3.5911,3.5959,3.6028,3.6035,3.6074,3.6045,3.6036,3.6037,3.6034,3.604,3.6079,3.608,3.608,3.6081,0,3.5265,3.5283,3.534,3.5405,3.5453,3.5506,3.5559,3.5589,3.5636,3.5683,3.5754,3.5799,3.589,3.5961,3.6034,3.6072,3.6085,3.6089,3.6103,3.6095,3.6078,3.6089,3.5977,3.6086,3.6086,3.6085,3.6085,3.6085,3.5316,3.536,3.5418,3.5482,3.5526,3.5575,3.5622,3.5662,3.5721,3.5797,3.5816,3.5891,3.5952,3.6051,3.6092,3.6153,3.6147,3.6166,3.6171,3.6175,3.6177,3.6068,3.6166,3.6166,3.6166,3.6166,3.6166,0,3.5395,3.5434,3.5492,3.5566,3.5617,3.5623,3.5683,3.5726,3.5791,3.5846,3.5904,3.5987,3.6056,3.6111,3.6183,3.6221,3.6229,3.6239,3.6237,3.6246,3.6177,3.6159,3.6231,3.6231,3.6231,3.6231,3.6231,3.6231,3.5443,3.5518,3.5542,3.564,3.5679,3.5751,3.5785,3.5833,3.5877,3.5968,3.6025,3.606,3.6116,3.6192,3.6257,3.6272,3.6298,3.6307,3.6323,3.6258,3.6251,3.6244,3.6227,3.6312,3.6312,3.6386,3.6387,3.6388]},{"header":{"parameterUnit":"m.s-1","parameterCategory":1,"la1":30.2991,"la2":30.254,"lo1":-89.0895,"lo2":-89.0444,"dy":0.0017,"dx":0.0017,"nx":28,"ny":28,"refTime":"2024-03-08T09:00:00:Z","depth":0,"parameterNumber":3,"parameterNumberName":"V-component_of_WINDS"},"data":[0,0,0,0,0,0,0,0,0,0,0,0,0,0,0,0,0,0,0,0,0,0,0,0,0,0,0,0,0,0,0,0,0,0,0,0,0,0,0,0,0,0,0,0,0,0,0,0,0,0,0,0,0,0,0,0,0,0,-4.2441,-4.2442,0,-4.2495,-4.2496,-4.2497,-4.2499,-4.2499,-4.2498,-4.2497,-4.2551,-4.2553,-4.2555,0,0,0,0,0,0,0,0,0,0,0,0,0,-4.2339,-4.2341,-4.2441,-4.2442,-4.2443,-4.2495,-4.2496,-4.2497,-4.2499,-4.2498,-4.2498,-4.2497,-4.255,-4.2552,-4.2555,0,0,0,0,0,0,0,0,0,0,0,0,0,-4.2387,-4.2342,-4.2441,-4.245,-4.2452,-4.2495,-4.2496,-4.2497,-4.2499,-4.2498,-4.2498,-4.2497,-4.2549,-4.2552,-4.2555,-4.2593,0,0,-4.2564,-4.2566,0,0,0,0,0,0,0,0,-4.2385,-4.2391,-4.2448,-4.245,-4.2451,-4.249,-4.248,-4.2529,-4.25,-4.2481,-4.2497,-4.2496,-4.2531,-4.2535,-4.2548,-4.2595,-4.2597,-4.2565,-4.2566,-4.2568,-4.2569,0,0,0,0,0,0,0,-4.2381,-4.2389,-4.2463,-4.2449,-4.2451,-4.2451,-4.2457,-4.2489,-4.2511,-4.2483,-4.2483,-4.249,-4.2532,-4.2545,-4.2549,-4.2598,-4.2564,-4.2567,-4.2569,-4.257,-4.2681,-4.2682,0,0,0,0,0,0,-4.2376,-4.2386,-4.2461,-4.2464,-4.2415,-4.2454,-4.2461,-4.2478,-4.251,-4.2514,-4.249,-4.2489,-4.254,-4.2545,-4.2551,-4.2598,-4.2568,-4.257,-4.2572,-4.268,-4.2681,-4.2682,0,0,0,0,0,0,-4.2374,-4.2383,-4.2459,-4.2425,-4.2435,-4.2457,-4.2477,-4.248,-4.2493,-4.2516,-4.252,-4.25,-4.2539,-4.2546,-4.2583,-4.2599,-4.2572,-4.2575,-4.2678,-4.268,-4.2682,-4.2691,0,0,0,0,0,0,-4.2371,-4.2382,-4.2397,-4.2426,-4.2437,-4.249,-4.2478,-4.2481,-4.2498,-4.2498,-4.2526,-4.253,-4.2539,-4.2578,-4.2586,-4.2603,-4.2577,-4.2677,-4.2679,-4.2681,-4.2689,-4.2693,-4.2696,0,0,0,0,0,-4.2368,-4.2396,-4.2397,-4.2406,-4.2455,-4.2491,-4.2497,-4.2508,-4.25,-4.2514,-4.253,-4.2529,-4.2597,-4.2582,-4.259,-4.2609,-4.2676,-4.2678,-4.2681,-4.2688,-4.2692,-4.2696,0,0,0,0,0,0,-4.2367,-4.24,-4.2402,-4.2441,-4.2463,-4.2491,-4.251,-4.2512,-4.2537,-4.2535,-4.2547,-4.2554,-4.259,-4.2603,-4.2586,-4.2648,-4.2635,-4.264,-4.2637,-4.2642,-4.2645,-4.2641,-4.2579,0,0,0,0,0,-4.2372,-4.2399,-4.2426,-4.2457,-4.2469,-4.2488,-4.2503,-4.251,-4.2534,-4.2543,-4.2561,-4.2583,-4.2609,-4.2626,-4.2652,-4.2692,-4.2698,-4.2709,-4.2712,-4.2714,-4.2718,-4.2741,-4.2746,-4.2691,-4.2691,-4.2691,0,0,-4.2381,-4.2403,-4.2418,-4.2458,-4.2476,-4.2503,-4.2495,-4.2524,-4.2544,-4.2547,-4.2582,-4.2597,-4.2622,-4.2661,-4.2678,-4.2673,-4.2735,-4.2718,-4.272,-4.2722,-4.2744,-4.2749,-4.2754,-4.2692,-4.2692,-4.2692,0,0,-4.2413,-4.2431,-4.246,-4.2479,-4.2508,-4.252,-4.2527,-4.2556,-4.2566,-4.2602,-4.2605,-4.2629,-4.2674,-4.2693,-4.2708,-4.2749,-4.2749,-4.2757,-4.2774,-4.2796,-4.28,-4.2804,-4.2819,-4.2824,-4.2761,-4.2761,-4.2761,0,-4.242,-4.2462,-4.2475,-4.2504,-4.2522,-4.2527,-4.2557,-4.2574,-4.2609,-4.2621,-4.2615,-4.2673,-4.269,-4.2734,-4.2744,-4.2756,-4.2765,-4.2753,-4.2799,-4.2803,-4.2807,-4.2821,-4.2827,-4.2761,-4.2761,-4.2761,-4.2761,0,-4.2471,-4.2499,-4.2519,-4.2554,-4.2574,-4.2604,-4.2621,-4.264,-4.2646,-4.2659,-4.2697,-4.2718,-4.2749,-4.276,-4.2765,-4.2805,-4.28,-4.2796,-4.2784,-4.2813,-4.2826,-4.2832,-4.2763,-4.2762,-4.2762,-4.2762,0,0,-4.2501,-4.2545,-4.2552,-4.2568,-4.2601,-4.2623,-4.2653,-4.2685,-4.2701,-4.2725,-4.275,-4.279,-4.2787,-4.2804,-4.2812,-4.2832,-4.2864,-4.2826,-4.2826,-4.2832,-4.2909,-4.2911,-4.2917,-4.2865,-4.2866,-4.2866,-4.2907,0,-4.2536,-4.259,-4.2603,-4.2649,-4.2677,-4.2683,-4.271,-4.2733,-4.2747,-4.2772,-4.2787,-4.2815,-4.2809,-4.2819,-4.2839,-4.2855,-4.2879,-4.2853,-4.2888,-4.2889,-4.2881,-4.2924,-4.2927,-4.2963,-4.2912,-4.2913,-4.2913,0,-4.2583,-4.261,-4.2659,-4.269,-4.2702,-4.2725,-4.2755,-4.2779,-4.2806,-4.2815,-4.2836,-4.2842,-4.2874,-4.2861,-4.2905,-4.2887,-4.2902,-4.2913,-4.2915,-4.2918,-4.2902,-4.2928,-4.2975,-4.298,-4.2922,-4.2921,-4.2921,0,-4.26,-4.2649,-4.2685,-4.2699,-4.2735,-4.2752,-4.2768,-4.2794,-4.2812,-4.2839,-4.2851,-4.2881,-4.2897,-4.292,-4.2934,-4.2923,-4.2977,-4.2965,-4.2985,-4.2985,-4.2995,-4.2994,-4.3045,-4.3006,-4.3006,-4.3006,-4.3006,0,-4.2637,-4.2667,-4.2693,-4.2715,-4.2749,-4.2765,-4.2798,-4.2814,-4.2838,-4.2863,-4.2871,-4.2894,-4.2912,-4.2938,-4.295,-4.2985,-4.2992,-4.3,-4.3003,-4.2999,-4.2998,-4.3009,-4.3006,-4.3008,-4.3007,-4.3007,-4.3007,0,-4.2661,-4.2681,-4.272,-4.2753,-4.2762,-4.2785,-4.2813,-4.2835,-4.285,-4.2882,-4.2891,-4.2914,-4.2945,-4.2962,-4.3001,-4.3009,-4.3048,-4.305,-4.3039,-4.304,-4.3059,-4.3057,-4.3118,-4.3127,-4.3083,-4.3083,-4.3083,0,-4.2683,-4.2707,-4.2742,-4.2761,-4.2777,-4.2806,-4.2826,-4.2843,-4.2862,-4.2896,-4.2914,-4.2946,-4.2972,-4.3022,-4.3042,-4.3072,-4.3074,-4.3094,-4.3079,-4.3075,-4.3074,-4.3073,-4.3075,-4.3096,-4.3096,-4.3097,-4.3097,0,-4.272,-4.2729,-4.2757,-4.2789,-4.2813,-4.2838,-4.2864,-4.2878,-4.29,-4.2922,-4.2955,-4.2975,-4.3016,-4.3048,-4.308,-4.3096,-4.31,-4.3102,-4.3108,-4.3104,-4.3097,-4.3101,-4.3046,-4.31,-4.31,-4.3099,-4.3099,-4.3099,-4.2744,-4.2766,-4.2795,-4.2826,-4.2848,-4.2872,-4.2894,-4.2913,-4.2941,-4.2976,-4.2985,-4.302,-4.3047,-4.3091,-4.3108,-4.3135,-4.3132,-4.314,-4.3143,-4.3144,-4.3145,-4.3094,-4.3141,-4.3141,-4.3141,-4.3141,-4.3141,0,-4.2781,-4.2801,-4.283,-4.2866,-4.2891,-4.2895,-4.2923,-4.2944,-4.2975,-4.3,-4.3027,-4.3065,-4.3097,-4.3121,-4.3153,-4.317,-4.3173,-4.3178,-4.3176,-4.318,-4.3147,-4.3138,-4.3175,-4.3175,-4.3175,-4.3175,-4.3175,-4.3175,-4.2803,-4.2841,-4.2853,-4.2901,-4.2921,-4.2956,-4.2972,-4.2994,-4.3015,-4.3058,-4.3085,-4.3101,-4.3126,-4.316,-4.3189,-4.3195,-4.3207,-4.3212,-4.3218,-4.3186,-4.3182,-4.3179,-4.3171,-4.3214,-4.3214,-4.3249,-4.3249,-4.3249]}]]